Location: Cherry Grove
(44.1968°N, 92.8624°W)
Time: 20:51:56
(UTC-06:00)

ISS - Visible Passes

Search period start: 11 December 2017 00:00
Search period end: 21 December 2017 00:00
Orbit: 403 x 407 km, 51.6° (Epoch: 12 December)

Date Brightness Start Highest point End Pass type
(mag) Time Alt. Az. Time Alt. Az. Time Alt. Az.
11 Dec -2.6 17:21:20 10° NW 17:24:13 27° NNE 17:26:30 14° ENE visible
11 Dec -1.7 18:57:41 10° WNW 18:59:11 25° WNW 18:59:11 25° WNW visible
12 Dec -3.8 18:05:29 10° NW 18:08:46 60° NNE 18:09:28 46° E visible
13 Dec -3.2 17:13:19 10° NW 17:16:27 39° NNE 17:19:35 10° E visible
13 Dec -2.3 18:49:53 10° WNW 18:52:38 34° SW 18:52:38 34° SW visible
14 Dec -3.5 17:57:31 10° WNW 18:00:47 65° SW 18:03:21 15° SE visible
15 Dec -3.9 17:05:15 10° NW 17:08:33 72° NNE 17:11:50 10° ESE visible
15 Dec -0.9 18:42:32 10° W 18:44:41 16° SW 18:46:49 10° S visible
16 Dec -1.7 17:49:43 10° WNW 17:52:37 29° SW 17:55:30 10° SSE visible
18 Dec -0.5 17:42:36 10° WSW 17:44:16 13° SW 17:45:54 10° SSW visible
